Probability
12 13 17 21 20 17 17 17 14 10 6 4 2 1 0 0 0 0 0 0 0 0 1 0 0 0 0 0 0 0 0 0 0 0 0 0 0 0 0 0 0 0 0
15 16 18 22 22 21 21 19 15 10 7 5 3 1 0 0 0 0 0 0 0 0 1 1 1 0 0 0 0 0 0 0 0 0 0 0 0 0 0 0 0 0 0
19 19 20 24 25 25 24 23 18 14 11 8 7 4 2 2 1 1 0 0 0 0 1 2 2 1 0 0 0 0 0 0 0 0 0 0 0 0 0 0 0 0 0
19 19 21 24 26 27 27 25 24 22 19 15 12 10 7 5 3 2 0 0 0 0 1 2 3 2 1 0 0 0 0 0 0 0 0 0 0 0 0 0 0 0 0
17 18 19 21 24 27 28 27 28 27 24 20 17 14 11 7 4 2 1 1 1 1 2 3 3 2 1 0 0 0 0 0 0 0 0 0 0 0 0 0 0 0 0
16 16 17 18 22 27 28 28 28 27 24 22 20 17 13 9 6 3 2 2 2 3 3 3 3 1 1 0 0 0 0 0 0 1 1 1 1 0 0 0 0 0 0
14 14 15 17 21 28 31 29 27 25 24 23 22 19 15 11 8 4 3 2 2 3 3 3 2 1 1 1 1 1 1 1 1 1 2 2 1 0 0 0 0 0 0
11 13 14 17 22 27 31 31 28 24 23 24 22 18 14 12 9 4 1 1 1 1 2 3 3 2 3 3 2 2 2 1 1 1 1 1 1 0 0 0 0 0 0
10 13 15 17 21 24 27 30 29 25 23 23 21 16 12 11 8 4 1 0 0 0 1 2 3 4 4 3 2 2 1 1 0 1 1 1 1 1 1 0 0 0 0
12 15 16 18 20 20 21 23 25 24 22 20 18 15 11 9 7 4 1 1 1 0 1 2 4 3 2 1 1 1 0 0 1 2 2 2 2 2 2 1 0 0 0
12 14 16 19 20 18 15 16 18 18 17 16 15 13 11 8 6 4 3 2 2 1 1 3 4 3 1 0 0 0 0 0 1 2 3 3 3 3 3 2 1 0 0
11 12 16 20 21 17 12 11 13 14 14 14 14 12 10 9 8 6 4 3 3 1 2 4 5 3 1 0 0 0 0 0 0 1 1 2 1 2 3 3 2 1 1
14 14 18 23 22 17 13 11 11 12 14 14 13 11 9 10 9 8 6 4 3 2 2 4 5 3 1 0 0 0 0 0 0 0 0 0 0 1 3 3 3 2 2
18 19 22 24 22 18 16 15 12 12 13 15 14 11 9 9 10 9 7 6 4 4 3 3 3 2 1 0 0 0 0 0 0 0 0 0 0 0 1 2 2 2 1
21 24 26 25 22 20 18 18 15 12 14 16 14 11 10 10 11 11 10 9 7 6 5 4 2 1 1 0 0 0 1 1 1 1 1 0 0 0 0 1 1 1 0
27 31 32 29 26 24 22 20 18 15 17 17 14 13 13 14 13 12 12 13 11 8 6 5 3 2 2 1 0 0 1 2 2 2 2 1 0 0 0 0 0 0 0
35 37 35 31 28 26 24 22 21 19 19 19 16 15 17 16 15 13 13 14 12 9 6 5 3 3 2 1 0 0 1 2 3 3 2 1 0 0 0 0 0 0 0
37 37 35 30 28 29 28 26 24 21 20 19 17 15 15 14 12 11 12 12 11 8 6 4 3 3 2 1 0 0 0 1 1 2 1 0 0 0 0 0 0 0 0
38 38 35 33 34 35 34 32 28 23 20 18 17 15 13 11 10 10 10 10 9 7 6 4 2 1 1 0 0 0 0 0 0 0 0 0 0 0 0 0 0 0 0
43 41 40 38 39 39 37 34 29 24 20 17 16 16 14 12 12 11 9 8 7 6 5 3 1 0 0 0 0 0 0 0 1 1 0 0 0 0 0 0 0 0 0
46 46 43 39 37 36 34 33 29 25 21 18 17 17 15 13 13 13 10 8 6 6 5 2 1 1 1 0 0 0 0 0 1 2 1 0 0 0 0 0 0 0 0
48 48 44 39 35 32 33 33 31 27 24 19 17 17 16 13 12 11 9 9 8 7 6 3 2 3 3 2 0 0 0 0 1 1 1 0 0 0 0 0 0 0 0
45 44 41 37 32 30 32 34 32 28 22 16 14 15 15 13 11 10 8 8 8 8 7 6 5 5 5 4 2 0 0 0 0 0 0 0 0 0 0 0 0 0 0
34 34 33 30 27 26 27 28 27 23 17 11 10 12 13 12 10 9 8 7 6 6 7 7 6 6 5 4 2 0 0 0 0 0 0 0 0 0 0 0 0 0 0
20 20 22 21 19 19 20 20 19 17 14 11 10 10 10 10 8 7 6 4 3 3 3 3 4 3 2 1 1 0 0 0 0 0 0 0 0 0 0 0 0 0 0
14 13 13 13 13 14 16 16 15 16 14 12 9 7 8 9 7 4 2 1 1 1 1 1 1 2 1 0 0 0 0 0 0 0 0 0 0 0 0 0 0 0 0
Wind_Speed
6 5 6 7 7 7 7 8 8 7 5 4 3 3 2 2 2 2 4 5 5 5 4 3 3 4 3 4 4 3 2 2 2 2 1 1 1 2 3 3 3 4 5
5 6 6 7 8 8 8 8 8 7 7 5 4 2 2 2 2 2 2 4 4 5 5 5 4 4 4 4 4 4 2 2 3 2 1 1 2 1 2 2 4 4 4
8 7 7 7 7 8 9 9 8 8 7 5 3 2 1 1 1 1 2 3 4 5 5 6 5 4 5 4 5 5 5 3 3 2 3 2 2 1 1 2 3 3 3
8 7 8 8 9 9 7 7 7 7 6 6 5 5 4 3 3 2 2 3 4 4 5 5 5 5 4 5 5 5 4 4 3 2 2 2 3 2 1 1 1 3 4
9 9 9 9 8 7 7 6 6 6 6 6 7 5 4 3 2 1 2 3 2 3 4 5 5 5 4 5 5 5 5 4 4 4 3 2 2 2 2 2 2 1 2
9 8 7 6 6 6 6 7 7 6 6 7 6 6 6 4 4 3 3 3 2 2 4 4 4 5 5 5 6 5 6 5 5 4 4 4 3 4 4 4 3 2 2
8 8 7 7 7 8 8 7 8 7 6 7 6 6 6 6 6 4 4 3 2 2 3 4 4 4 5 5 5 5 6 6 6 6 5 4 4 3 3 3 2 2 2
7 8 8 7 8 8 8 8 8 7 6 7 6 5 5 4 3 4 3 3 3 3 3 3 4 4 4 5 4 4 5 5 6 6 5 4 4 4 4 4 3 2 2
8 8 7 7 7 8 8 8 8 6 6 6 6 5 5 4 4 3 3 3 3 3 3 4 4 4 4 4 4 3 4 4 5 5 5 4 3 4 4 3 4 4 3
7 6 6 6 6 6 6 7 7 7 6 6 5 5 4 4 4 3 3 3 3 3 3 4 4 4 4 4 4 3 3 3 4 3 4 4 3 3 3 4 4 4 4
8 7 6 5 5 5 6 6 6 6 5 5 5 4 4 4 4 3 3 3 3 3 4 4 3 3 4 4 4 4 3 4 4 3 4 5 4 3 3 3 3 3 3
6 5 5 5 5 6 6 7 7 6 6 5 5 4 4 3 3 3 3 3 3 3 3 3 3 3 4 3 4 4 4 4 4 4 4 4 3 4 3 3 4 4 4
5 5 5 5 6 6 6 6 7 6 6 5 5 5 4 4 4 4 3 3 2 2 2 2 3 3 3 3 4 4 4 4 4 4 4 4 3 4 3 4 4 3 4
6 6 6 6 6 6 6 6 6 6 6 6 5 5 5 4 4 3 3 2 2 2 2 2 2 3 3 3 3 3 3 3 3 3 4 4 4 5 4 4 4 4 4
7 8 7 6 6 6 5 6 6 6 6 6 6 5 4 3 3 3 2 2 1 2 2 1 1 1 1 2 2 3 3 3 2 2 3 3 4 4 4 3 3 4 4
9 8 8 8 7 7 7 6 6 6 6 6 5 4 3 3 3 2 2 1 1 1 1 1 1 1 1 1 2 2 2 2 2 2 2 2 2 2 3 3 4 4 4
9 9 9 9 8 8 8 7 6 6 5 5 4 3 3 3 3 3 2 2 1 1 1 1 1 1 1 1 1 2 1 1 1 1 1 1 1 1 1 1 1 1 2
7 7 7 7 6 6 6 6 6 6 5 5 4 3 3 3 2 2 2 1 1 1 1 1 0 0 1 1 0 0 0 0 0 0 1 1 0 1 1 0 1 1 2
5 5 5 5 5 5 5 6 6 5 5 4 4 4 4 4 3 2 2 1 1 1 1 1 1 0 1 1 0 1 1 1 1 1 0 1 0 1 1 1 0 1 1
3 4 4 5 5 5 6 6 5 4 4 3 3 3 3 3 3 3 2 1 1 2 1 1 0 0 1 1 1 1 1 1 0 0 0 1 1 1 1 1 1 1 1
4 5 6 5 4 4 6 6 4 3 3 2 2 3 3 3 3 2 2 2 2 1 1 1 0 0 1 1 1 1 1 1 1 1 1 0 1 1 0 1 1 2 1
6 5 6 6 4 4 6 5 3 2 2 3 3 3 3 3 2 2 2 2 2 2 1 1 1 1 1 1 1 0 1 1 2 2 1 1 1 1 1 1 1 1 1
5 5 6 6 5 4 4 5 2 2 3 3 3 2 3 3 3 3 2 1 1 1 1 1 1 1 1 1 1 1 1 2 1 1 1 1 1 1 0 0 1 1 1
4 4 6 6 5 4 4 3 3 3 3 3 2 2 2 2 2 2 2 1 1 1 1 1 2 1 1 1 1 1 0 0 0 0 1 1 1 1 1 1 1 0 1
4 5 5 4 4 4 4 3 3 4 3 3 3 2 2 2 2 2 2 1 1 1 1 1 1 1 2 2 2 1 0 1 1 1 1 1 1 1 1 1 0 0 1
4 5 5 4 3 3 3 3 3 3 3 2 2 1 1 2 2 2 2 4 3 3 2 1 1 1 1 1 1 1 0 1 3 2 1 1 1 1 0 0 1 0 0
Wind_Direction
203 186 181 176 171 175 179 185 187 185 172 166 172 179 197 199 202 209 201 195 195 191 191 198 187 180 187 194 177 157 161 170 145 119 41 333 256 233 233 224 219 224 224
189 189 187 182 182 184 186 186 190 185 182 183 174 171 170 189 197 212 206 202 198 197 200 194 192 188 188 191 182 164 158 179 168 152 132 321 327 285 236 219 220 226 222
198 195 194 195 191 192 192 193 192 187 184 173 144 122 102 70 141 205 214 217 206 204 203 197 196 194 190 197 195 184 177 190 196 181 160 172 230 290 298 237 225 220 219
196 197 198 198 200 200 192 191 184 182 178 168 171 174 185 200 212 204 214 226 216 215 208 202 200 203 199 201 203 196 188 179 194 199 206 192 170 182 276 296 243 225 225
194 200 204 203 199 191 184 183 177 181 179 180 186 188 201 206 200 196 223 236 229 223 213 206 201 204 207 210 208 195 196 191 192 192 183 186 189 193 200 250 264 249 233
194 202 201 189 183 179 176 174 176 186 185 187 188 192 202 200 197 207 218 229 233 230 220 210 205 208 209 213 212 207 203 204 204 203 192 182 184 195 195 220 236 246 248
189 192 189 187 183 182 181 179 182 191 188 189 194 199 203 200 204 209 215 218 225 230 230 218 210 211 212 213 207 208 213 207 207 209 209 207 211 189 183 193 219 238 254
189 193 192 189 189 188 184 181 187 192 187 190 197 196 194 194 204 210 210 216 226 234 233 226 221 221 216 215 204 208 214 209 214 219 211 211 218 205 195 188 185 227 254
191 193 186 184 187 188 187 184 183 184 185 190 189 188 190 196 207 212 213 221 231 236 232 230 229 223 214 210 200 211 219 212 215 220 217 217 220 213 214 205 195 197 234
189 190 185 183 184 183 180 175 176 181 183 184 190 193 193 200 205 209 218 223 233 239 239 237 230 224 217 209 202 207 214 218 225 216 215 222 224 216 213 214 213 209 214
191 189 184 175 168 166 167 172 176 175 177 184 188 188 191 195 199 213 227 228 232 233 236 234 227 222 220 210 203 207 203 214 226 222 217 227 223 219 215 207 207 209 205
184 176 168 157 160 169 173 178 180 181 185 183 182 188 189 191 201 218 229 228 231 234 232 229 227 229 226 212 208 214 211 213 224 230 226 234 228 224 223 215 217 215 208
172 162 160 167 174 176 179 183 184 186 182 176 179 185 192 196 207 217 222 221 223 233 233 230 229 234 229 219 219 217 217 218 221 221 224 234 227 236 231 226 226 222 218
178 172 174 182 183 180 182 183 184 183 179 177 182 192 201 204 211 213 212 213 215 223 237 240 236 234 231 222 219 215 216 221 223 222 226 232 227 233 234 232 226 220 216
186 186 185 184 182 178 181 182 182 180 177 178 188 201 202 198 200 206 209 204 204 218 225 236 252 249 235 234 215 214 215 220 233 242 242 244 243 244 238 238 226 211 212
198 192 185 180 182 183 182 180 181 178 171 179 193 195 187 184 190 193 184 175 183 203 191 213 223 257 275 269 214 201 210 208 220 246 265 271 260 263 256 251 237 218 211
194 188 187 186 187 185 179 180 179 166 164 170 176 180 177 184 190 179 167 181 185 174 195 215 200 256 311 317 252 208 203 208 227 241 265 294 334 20 359 354 353 277 244
188 190 187 183 182 173 168 162 155 158 165 170 174 171 167 174 168 159 172 189 178 179 204 216 189 36 332 351 236 192 155 214 282 258 220 209 307 31 49 47 28 3 344
184 181 176 164 150 151 151 144 147 153 164 177 183 182 176 173 168 179 190 187 177 184 179 146 115 197 330 358 14 114 101 70 14 360 61 129 114 25 79 115 110 353 350
138 132 123 119 126 131 132 134 146 153 174 190 192 176 171 176 180 185 180 176 178 183 170 148 151 214 303 322 155 144 139 155 242 314 76 95 90 47 79 161 200 250 288
90 100 103 106 112 123 127 129 138 164 174 153 151 149 154 164 165 156 152 151 148 152 169 180 232 269 287 281 182 161 165 197 208 223 245 176 109 89 76 218 236 247 230
74 86 95 92 91 113 129 130 145 165 129 129 138 153 154 152 144 141 139 141 153 166 200 239 280 311 316 320 300 241 205 203 207 224 227 208 169 165 183 206 219 177 146
76 82 93 87 76 78 111 123 131 118 117 114 122 137 130 127 133 140 152 157 169 184 211 235 263 298 343 359 356 324 258 209 218 234 206 194 168 149 148 118 121 131 138
74 85 92 94 86 75 74 96 106 101 104 108 102 106 119 119 111 113 140 162 177 202 228 250 264 281 307 333 348 351 360 126 137 40 89 99 105 96 73 50 78 114 164
55 70 78 79 77 78 77 71 82 98 107 109 104 94 102 124 110 96 80 133 129 196 211 244 247 258 271 276 255 223 243 218 188 140 102 80 85 71 37 25 43 76 111
71 70 72 70 62 71 71 62 66 91 102 96 96 106 114 113 119 123 84 55 64 63 75 76 163 215 270 314 202 194 167 153 146 133 150 184 199 220 251 273 308 322 322